timestamp,gas_concentrations,,corrected_fluxes_and_quality_flags,,,,,,,,,,storage_terms,,,turbulence,,,footprint,,
ISOdate,CO2_1_1_1,H2O_1_1_1,Tau_1_1_1,QcTau_1_1_1,H_1_1_1,QcH_1_1_1,LE_1_1_1, QcLE_1_1_1,Fc_1_1_1, QcFc_1_1_1,E_1_1_1, QcE_1_1_1,Sa_1_1_1,Sw_1_1_1,Sc_1_1_1,ustar_1_1_1,MO_length_1_1_1,ZL_1_1_1,Fetchmax_1_1_1,Fetch70_1_1_1,Fetch90_1_1_1
yyyymmddHHMM,[µmol+1mol_a-1],[mmol+1mol_a-1],[kg+1m-1s-2],[#],[W+1m-2],[#],[W+1m-2],[#],[µmol+1s-1m-2],[#],[mmol+1s-1m-2],[#],[W+1m-2],[W+1m-2],[µmol+1s-1m-2],[m+1s-1],[m],[#],[m],[m],[m]
201310310030,646.72078609228299,11.688665367980999,0.24590441811853314,0,-21.098279470976070,0,159.79474708785591,1,21.710682457090876,1,3.5752214173138825,1,-9999.,-9999.,-9999.,0.46128218089341011,387.72951442056535,5.57089393421073206E-002,112.06378209106930,204.88833457263055,306.96006073264203
201310310100,529.68951379370606,11.642483104359348,0.17368076712278180,0,-10.694432635302189,0,-9999.,-9999.,51.428484084691547,0,-9999.,-9999.,-1.4773423305950870,459.44918015039008,-91.177806287340744,0.38770758777765496,454.03139369669003,4.75738028248099756E-002,106.15888095877338,194.09229203116999,290.78562170900807
201310310130,544.15680076206309,11.583007022815250,0.18407821645872047,0,-15.399058306908048,0,-9999.,-9999.,20.095735582877644,1,-9999.,-9999.,-1.8709455245243647,591.64540166771383,11.269302213691404,0.39917503451032155,344.01368568260614,6.27881997111259943E-002,100.89718378418537,184.47223146378022,276.37301797450476
201310310200,541.66736645779395,11.550968043787030,0.18357280220197433,0,-13.732197016834679,0,22.121046993565166,1,-1.5704695228951622,1,0.49484094107626619,1,-1.0601894103358778,-1.1153794461206752,-1.9386731013944636,0.39867289190530908,384.20232300411863,5.62203784482803656E-002,114.82976571720046,209.94543480642983,314.53651840718965
201310310230,546.76253171189853,11.550869394894145,0.15345144632537053,0,-18.195010479146688,0,139.08257191536936,1,4.5821127027463584,2,3.1112071251101598,1,-0.20435190017702015,-3.43241277510390741E-003,3.9657175570622201,0.36460131209469776,221.70250025748214,9.74278592930348936E-002,105.09059954396906,192.13913289402541,287.85943340937172
201310310300,677.67088292868834,11.527237348448509,0.22502816157359989,0,-6.5161107871801178,0,-9999.,-9999.,-29.189057493567233,1,-9999.,-9999.,-0.89262074543944692,234.79324653451374,101.83638890911030,0.44163466526813028,1099.6667374109986,1.96423145896492055E-002,115.44521625682748,211.07067468075007,316.22233278447277
201310310330,626.22249526365249,11.522257768589842,0.16863402342740061,0,-41.268750122710728,0,598.90284508796833,1,19.431732555880338,1,13.396485406213975,1,-0.29490454243961983,-0.17311161698887867,-40.007349436847406,0.38238489038662821,112.66951692141924,0.19171112640045138,126.14079847852700,230.62561016300782,345.51918951268675
201310310400,606.08389272489796,11.534287408907741,2.70939736303226764E-002,1,-10.463794572479902,0,122.35141297363538,1,6.2425980569706390,1,2.7368262217067878,1,0.20407298546450003,0.41800971635749473,-15.653133823175628,0.15330753036565478,28.628442801571072,0.75449440787658340,184.57294902777426,1701.0000000000000,8397.0000000000000
201310310430,589.82588551317610,11.593273582714437,5.61352364074697713E-002,0,-17.065752413253740,0,210.50186340942170,1,12.928104241576010,1,4.7089541866455669,1,1.6546101503061121,2.0487009473805120,-12.631768985180814,0.22071778582723159,52.377333281578345,0.41239212931821689,117.80746294738162,215.38961503102331,322.69289244315632
201310310500,574.38103031840421,11.613039798944591,4.85407824045665515E-002,0,-3.1030994479670642,0,-9999.,-9999.,5.2177020146108664,1,-9999.,-9999.,0.55902348450587369,-196.09895805180128,-11.998468513108136,0.20525890737450886,231.66307821762115,9.32388543145803161E-002,105.42269773684251,192.74631430788421,288.76910181027210
201310310530,556.04173835344955,11.592772293333638,3.95879136507725007E-002,0,-3.3252775269168255,0,-9999.,-9999.,-0.42258350344628365,2,-9999.,-9999.,-0.75514946065646182,201.00286024459643,-14.241669423757545,0.18540015029721335,159.25514557984380,0.13563141034693083,91.552791517734889,723.00000000000000,3168.0000000000000
201310310600,532.81160334654214,11.595495445871340,2.66621907221891372E-002,0,-1.9956263382240502,0,-9999.,-9999.,-3.1986511004250997,2,-9999.,-9999.,-1.28742068899688669E-012,-26.999755818698436,-18.034993986899323,0.15217171972860366,146.70080247455476,0.14723845838366506,88.066306851773959,702.00000000000000,3098.0000000000000
201310310630,507.28393979443962,11.542727391271857,1.88382386148178739E-002,1,-0.52073547099790274,1,-9999.,-9999.,-2.8146137607143817,2,-9999.,-9999.,-1.5178146831612001,523.35312551695108,-19.823640299643746,0.12789329944216465,333.76052732681285,6.47170597823559790E-002,71.414771828480667,496.00000000000000,1966.0000000000000
201310310700,526.89596139772596,11.535378460387399,1.40662052861227627E-002,1,1.3708909788562791,2,-9999.,-9999.,157.61546230947354,1,-9999.,-9999.,-0.22654052669511707,72.887764585452715,15.229908173561782,0.11051321775831917,-81.797251268255678,-0.26406755318907210,143.86113513962422,497.00000000000000,1197.0000000000000
201310310730,528.63424787309521,11.507856566636519,2.66895880928244150E-002,0,1.6286329205192032,0,-9999.,-9999.,10.483475850134115,1,-9999.,-9999.,-0.95117141884741563,272.89286427578588,1.3494669302359388,0.15225144664961074,-179.97643672297636,-0.12001571090801842,122.92315589544688,476.00000000000000,1241.0000000000000
201310310800,531.91850074288982,11.511526548054952,6.67095938532982630E-002,0,0.93296766344588078,0,-9999.,-9999.,8.4472999562585027,0,-9999.,-9999.,-8.29922331480427572E-002,-36.369351044454774,2.5482015918481848,0.24077245079955648,-1242.0255718252038,-1.73909462816115613E-002,111.72444992143656,204.26792714209719,306.03057734866735
201310310830,509.59239744850657,11.504797575466482,0.11136212537378534,0,2.0122562661879120,0,-9999.,-9999.,4.2863867569878744,1,-9999.,-9999.,-0.30170831298073847,66.666723287845798,-17.317821428225123,0.31112813042116938,-1242.2601076664689,-1.73876629110908607E-002,110.19095717688820,201.46421332263682,301.83010314356608
201310310900,450.72701376550566,11.533070314309782,1.76274814658051310E-002,0,1.3788279153855949,0,27.733936936536931,0,-15.415384742799247,1,0.62034343954750615,0,0.66337782572989945,0.97988754141685430,-45.634048900538076,0.12382080988737199,-114.23628047043151,-0.18908178654845878,174.12183508736086,622.00000000000000,1532.0000000000000
201310310930,495.89247648907264,11.635395954952916,1.91216647439735980E-002,1,8.7894457205536689,1,-9999.,-9999.,52.717762138917124,2,-9999.,-9999.,2.8323511111708175,-1012.2826540232708,34.987098873657757,0.12901302953708665,-20.266802870561190,-1.0657823110015723,34.821679926090610,115.00000000000000,269.00000000000000
201310311000,444.50632853992272,11.692081750323668,7.91013934747703679E-003,1,-5.9656551632396413,1,-9999.,-9999.,-72.725764256230974,1,-9999.,-9999.,1.4376897110590636,-560.31601969794644,-39.775479183057797,8.30105939947575755E-002,7.9510800611117594,2.7166120620070555,171.27843870232775,1286.0000000000000,5414.0000000000000
201310311030,613.13736279184150,11.828164549186301,2.46951561586844677E-002,1,-1.4539054181995101,1,-84.836716947520912,2,-92.007629979474089,2,-1.8982418742157321,2,3.7300995191896460,4.7032763551256300,130.40746847330152,0.14674413913285994,180.19161272218318,0.11987239402370281,96.861631436529819,754.00000000000000,3261.0000000000000
201310311100,753.80283919992758,11.975186910851495,4.88983935213480742E-002,1,7.1129975278160904,2,-100.80224275099913,2,-62.696180582854915,1,-2.2558458325333133,2,3.8831815346568139,5.0740569423886157,108.64223331626614,0.20662896358312355,-102.78171996123594,-0.21015410141167543,109.23752315020117,199.72103183966641,299.21849963282085
201310311130,784.47707913954093,12.196091102816663,3.90667530690693363E-002,0,10.663688134830073,2,-126.29052834568434,2,-27.231696840038655,1,-2.8269415375771119,2,5.7884189474805563,7.6084505281249486,23.648964055619786,0.18486394145216550,-49.067480250994322,-0.44021009209174322,77.779558205084413,263.00000000000000,625.00000000000000
201310311200,749.35100841236863,12.358641472540205,8.55859943550107555E-002,1,106.80066415569549,1,-1487.0566417196478,2,-86.577396624685107,2,-33.292920614500026,2,4.2389958525007865,5.5910356859965553,-27.049438743952354,0.27379034006864827,-15.910433477756607,-1.3575997178328061,134.33659716504746,245.61014407789119,367.96875185676646
201310311230,699.34537559426531,12.420093823229374,1.62352178968432383E-002,1,4.2675236621227306,1,-15.745644330401122,1,-24.725523566605656,1,-0.35254164717973541,1,1.3841548823409040,2.1114392005323799,-38.468831952069593,0.11930817665643809,-32.930315100134280,-0.65593055925273924,52.367205417054301,175.00000000000000,413.00000000000000
201310311300,642.12964622186473,12.596130621483706,1.62338862699163491E-002,1,6.5839488535671462,1,-9999.,-9999.,-22.281762305772443,1,-9999.,-9999.,4.4304962144678974,-1725.1230350321471,-43.951693547785212,0.11939382578379613,-21.379733985251534,-1.0103025610562046,35.768361775510776,118.00000000000000,278.00000000000000
201310311330,543.05978918004666,12.729849256449038,4.81053280096148603E-002,1,8.5197648751382982,0,-9999.,-9999.,-17.776246143053722,2,-9999.,-9999.,3.3135795041723881,-1308.7380434042282,-76.016412170142033,0.20564843725951104,-84.394148210978017,-0.25594191609117117,126.51157544667606,231.30350871403311,346.53480507141211
201310311400,474.44790895643968,12.747860647388556,5.76663617914089932E-002,1,3.5734963597827680,1,17.067981928472989,1,-6.1614205362782588,1,0.38228034454759369,1,0.33568451063181393,0.61676001856442975,-52.622087850227231,0.22521127239693253,-264.19093804043536,-8.17590495730555478E-002,137.39507899255204,251.20202431131776,376.34640742043058
201310311430,459.81390608607080,12.786517341620431,3.89839333576292163E-002,0,6.7824824948047704,1,-36.565933031637890,1,4.6471608684486352,1,-0.81901624720335731,1,0.86484914317561123,1.3229335363862305,-11.217402601427093,0.18522289040505019,-77.412430190012159,-0.27902495693497631,69.922844063753800,250.00000000000000,618.00000000000000
201310311500,439.01222844765516,12.809977429386471,0.11250781128159917,0,8.5523658175325554,0,21.874990701523544,1,-5.0657045085145231,0,0.48997272487381210,1,0.43962349581699767,0.80237873808468685,-15.935737572425239,0.31475510659332745,-301.15398802864388,-7.17241041415182801E-002,125.13256990027084,228.78224676394316,342.75749523609710
201310311530,443.59073272169530,12.741542267116685,0.12790651343815521,0,6.7561435599976472,0,19.986831332430736,0,-4.2086169134286600,0,0.44764417865324319,0,-1.8851057495068544,-2.3407563376672806,3.5074341335432671,0.33560319315089832,-461.98935513287012,-4.67543240120494724E-002,128.84760271112222,235.57451159112392,352.93354565991712
201310311600,487.34709384863697,12.566789009848106,0.16603870528087253,0,15.243014867743353,2,-9999.,-9999.,36.266694834349245,2,-9999.,-9999.,-4.6518322799755341,1708.8975364606374,33.538683816327485,0.38225268667701318,-302.52478893079251,-7.13991077436677557E-002,119.82383221481294,219.07618113988178,328.21604025452649
201310311630,437.08706519754855,12.305084144052646,0.25181271954837370,0,54.290955698379008,2,-9999.,-9999.,-248.70775492118881,1,-9999.,-9999.,-6.9777520617931348,2562.8213179199702,-38.566827115548044,0.47045700354607589,-158.34176059826683,-0.13641379203053039,119.65021190549005,218.75874784108200,327.74046732900393
201310311700,452.34139649409667,12.049297963809588,0.24039771350400796,0,-0.19268833790940518,2,-9999.,-9999.,-4.4762457398912447,2,-9999.,-9999.,-7.0136419682843529,2507.8933067673102,11.716013508671804,0.45943853440730709,41543.841910882955,5.19932654431308049E-004,116.54363754736207,213.07893912334993,319.23107887318247
201310311730,460.85329244147590,11.339498829229626,0.28240173142349523,0,1.1896581317071315,1,-9999.,-9999.,-85.285480580397163,0,-9999.,-9999.,-20.114065500776700,6986.7590676396094,6.5576763799360585,0.49712876860546967,-8522.6177698933116,-2.53443256323231721E-003,104.02732290356683,190.19512408067877,284.94695396219197
201310311800,454.41926298102379,10.955842362919480,0.36075082960335969,0,-16.567310810501994,0,-9999.,-9999.,77.890273091534411,0,-9999.,-9999.,-11.367790618118546,3784.7063912285330,-4.9653138395140815,0.56135456738052958,881.02140009023117,2.45169981089991725E-002,112.55476225728053,205.78600290655723,308.30493147345140
201310311830,443.96657468429333,10.817933838504112,0.22165704859314547,0,-14.793683900222234,1,-9999.,-9999.,35.910184672852267,2,-9999.,-9999.,-4.2188859007458461,1361.3444625691898,-8.0705151575533751,0.43990428715042190,474.73993859192069,4.54985945864711319E-002,106.19898581286999,194.16561649524576,290.89547511766034
201310311900,449.42750731155354,10.612023646390897,0.36932431217897105,0,-15.172459661299564,0,-9999.,-9999.,-188.04925424736930,1,-9999.,-9999.,-6.4519225623505081,2034.3479271409651,4.2188286935464969,0.56764718276730697,994.21984520615285,2.17255771991970367E-002,107.06102610147165,195.74170107645836,293.25673702053018
201310311930,406.58680645721699,10.449335333042290,0.39892051030158099,0,-5.6265428314338912,1,-9999.,-9999.,-38.079773798582735,1,-9999.,-9999.,-5.0810900231516172,1608.8847367538767,-33.121460106071417,0.58971257962958845,3005.7524785628657,7.18622047359254463E-003,122.55152406882151,224.06327180170663,335.68761083284210
201310312000,435.69470343144906,10.438453242696019,0.36062489904735717,0,-9.7377706501578167,0,-9999.,-9999.,-66.079219908629739,2,-9999.,-9999.,-0.43585099284225476,107.59441183901833,22.499068641862216,0.56075578688486261,1492.9394793620090,1.44681015530720106E-002,116.63542425428911,213.24675449748128,319.48249688359618
201310312030,455.61111562521631,10.304461327309967,0.40752664166394714,0,-4.4559921173897310,1,-9999.,-9999.,-26.790920390955414,2,-9999.,-9999.,-4.2557140668180624,1325.8406169351931,15.403591997695969,0.59591493841842813,3915.1823081578505,5.51698447221557649E-003,111.45501537910238,203.77531486697043,305.29255439481807
201310312100,475.31240416821078,9.9277625985841151,0.54481486419742819,0,-0.20690663299896425,2,-9999.,-9999.,-46.149230833452954,1,-9999.,-9999.,-12.180350514203230,3736.4170374561113,15.266195495509965,0.68831470953277496,129924.00470279342,1.66251033051289507E-004,110.14907937902908,201.38764735191177,301.71539336727329
201310312130,451.23278480525812,9.5584020046443250,0.54738079851922650,0,-29.549784356625263,1,-9999.,-9999.,-54.113681312205408,2,-9999.,-9999.,-12.405157746029952,3672.1480600893788,-18.692502736892582,0.68926478729111329,913.32205928182793,2.36499269676949640E-002,102.14868637937953,186.76037735407576,279.80107747293994
201310312200,436.89644145907965,9.3422858904340238,0.48304873721830449,0,7.9212073086258021,0,-9999.,-9999.,-97.605583636095787,0,-9999.,-9999.,-7.4628421361251140,2151.5822098734329,-11.140922770955925,0.64712251751994487,-2819.2587213902389,-7.66158842965237487E-003,108.74886304013368,198.82760530831447,297.87998388522601
201310312230,425.49390276859805,9.2278935088598342,0.59456188379919861,0,10.361644240638736,2,-9999.,-9999.,-125.68729201226466,1,-9999.,-9999.,-3.9759721259123437,1139.8829317153584,-8.8675606216781713,0.71766244747714170,-2939.8282883061488,-7.34736790101620137E-003,117.61581856330240,215.03922797508511,322.16794878447968
201310312300,441.41259951457550,9.1013098664666447,0.52776485084125579,0,-36.143622115058811,1,-9999.,-9999.,-29.069380960123038,2,-9999.,-9999.,-4.4779566329112637,1262.5062004108554,12.388573634306674,0.67588980961651590,704.00751728717137,3.06814905659439953E-002,102.44182327147155,187.29632508403657,280.60402483488440
201310312330,428.85314606526492,9.0193750559663801,0.37718479473282102,0,6.52860954889708939E-002,2,-9999.,-9999.,7.5240104635446130,2,-9999.,-9999.,-2.8835911653094972,817.77582231426368,-9.7800688610511646,0.57121199330497097,-235281.39986879536,-9.18049621093942734E-005,105.06708461006544,192.09614009514604,287.79502236233674
201311010000,415.13108831921164,8.9934768946048127,0.53381540503262992,0,-8.9891681423080385,1,-9999.,-9999.,14.484777992806976,2,-9999.,-9999.,-0.85555704522784692,258.59151623125240,-10.689425640431464,0.67940958355556469,2875.8397430069022,7.51084967530757201E-003,110.74905645587540,202.48459680126106,303.35882353275957
